SP4LIN-15 Weather Reports


Display with metric or nautical units.
time (UTC)temp
F
wind
direction
speed
MPH
gust
MPH
rain 1hr
in
rain 24hr
in
rain mn
in
humidity
%
barometer
mb
20260508033857 45 45 2.0 2.0 0.00 0.00 0.00 86 1010.2
20260508032357 45 45 0.0 6.0 0.00 0.00 0.00 86 1010.2
20260508030857 45 0 6.0 6.0 0.00 0.00 0.00 87 1010.1
20260508025357 45 22 3.0 3.0 0.00 0.00 0.00 87 1010.2
20260508023857 45 45 1.0 3.0 0.00 0.00 0.00 87 1010.1
20260508022357 45 0 4.0 4.0 0.00 0.00 0.00 87 1010.1
20260508020857 45 22 2.0 2.0 0.00 0.00 0.00 87 1010.0
20260508015357 45 22 2.0 2.0 0.00 0.00 0.00 88 1010.1
20260508013857 45 22 0.0 3.0 0.00 0.00 0.00 88 1009.9
20260508012358 44 45 3.0 4.0 0.00 0.00 0.00 88 1010.0
20260508010858 44 0 0.0 0.0 0.00 0.00 0.00 88 1009.9
20260508005358 44 0 3.0 4.0 0.00 0.00 0.00 88 1010.0
20260508003858 44 0 2.0 3.0 0.00 0.00 0.00 87 1010.0
20260508002358 44 337 2.0 4.0 0.00 0.00 0.00 87 1009.8
20260508000858 44 337 0.0 1.0 0.00 0.00 0.00 87 1009.8
20260507235358 44 337 0.0 2.0 0.00 0.00 0.00 87 1009.7
20260507233858 44 337 2.0 3.0 0.00 0.00 0.00 87 1009.7
20260507232358 44 337 1.0 1.0 0.00 0.00 0.00 87 1009.8
20260507230858 44 337 1.0 2.0 0.00 0.00 0.00 87 1009.4
20260507225358 44 337 4.0 4.0 0.00 0.00 0.00 87 1009.5
20260507223858 44 45 0.0 2.0 0.00 0.00 0.00 87 1009.3
20260507222358 44 0 2.0 2.0 0.00 0.00 0.00 87 1009.4
20260507220858 44 45 2.0 2.0 0.00 0.00 0.00 87 1009.3
20260507215358 44 0 0.0 3.0 0.00 0.00 0.00 86 1009.4
20260507213858 44 0 4.0 4.0 0.00 0.00 0.00 86 1009.4
20260507212358 44 337 0.0 4.0 0.00 0.00 0.00 86 1009.5
20260507210858 44 0 4.0 4.0 0.00 0.00 0.00 86 1009.4
20260507205358 44 0 2.0 2.0 0.00 0.00 0.00 86 1009.2
20260507203858 44 337 3.0 5.0 0.00 0.00 0.00 86 1008.9
20260507202358 44 337 4.0 5.0 0.00 0.00 0.00 85 1008.7
20260507200858 44 0 3.0 5.0 0.00 0.00 0.00 85 1008.5
20260507195358 44 0 1.0 4.0 0.00 0.00 0.00 85 1008.7
20260507193858 44 337 0.0 4.0 0.00 0.00 0.00 84 1008.7
20260507192358 45 337 3.0 3.0 0.00 0.00 0.00 84 1008.6
20260507190858 45 0 3.0 3.0 0.00 0.00 0.00 84 1008.5
20260507185358 45 337 3.0 3.0 0.00 0.00 0.00 83 1008.2
20260507183858 45 22 2.0 4.0 0.00 0.00 0.00 83 1007.9
20260507182358 45 0 0.0 3.0 0.00 0.00 0.00 82 1007.7
20260507180858 46 22 2.0 5.0 0.00 0.00 0.00 82 1007.6
20260507175358 46 0 4.0 8.0 0.00 0.00 0.00 81 1007.6
20260507173858 46 0 5.0 6.0 0.00 0.00 0.00 81 1007.5
20260507172358 46 337 10.0 10.0 0.00 0.00 0.00 80 1007.4
20260507170859 47 0 4.0 4.0 0.00 0.00 0.00 80 1007.3
20260507165358 47 22 3.0 4.0 0.00 0.00 0.00 80 1007.7
20260507163858 47 0 7.0 7.0 0.00 0.00 0.00 80 1007.7
20260507162358 47 22 4.0 6.0 0.00 0.00 0.00 79 1007.6
20260507160858 47 0 5.0 11.0 0.00 0.00 0.00 79 1007.5
20260507155358 47 0 6.0 8.0 0.00 0.00 0.00 78 1007.6
20260507153858 48 337 7.0 7.0 0.00 0.00 0.00 77 1007.6
20260507152359 48 337 2.0 4.0 0.00 0.00 0.00 76 1007.5
20260507150859 48 0 5.0 5.0 0.00 0.00 0.00 75 1007.3
20260507145359 50 270 2.0 5.0 0.00 0.00 0.00 74 1007.3
20260507143859 50 0 2.0 8.0 0.00 0.00 0.00 74 1007.7
20260507142359 51 0 6.0 6.0 0.00 0.00 0.00 73 1007.1
20260507140859 51 337 4.0 6.0 0.00 0.00 0.00 72 1006.9
20260507135415 50 0 7.0 7.0 0.00 0.00 0.00 75 1007.1
20260507133859 50 337 6.0 10.0 0.00 0.00 0.00 74 1007.1
20260507132359 51 0 6.0 6.0 0.00 0.00 0.00 72 1006.8
20260507130859 52 0 6.0 7.0 0.00 0.00 0.00 73 1006.5
20260507125359 52 337 7.0 7.0 0.00 0.00 0.00 73 1006.5
20260507123859 52 337 6.0 7.0 0.00 0.00 0.00 73 1006.4
20260507122359 52 337 7.0 7.0 0.00 0.00 0.00 74 1006.1
20260507120859 50 337 7.0 7.0 0.00 0.00 0.00 77 1006.1
20260507115359 49 337 9.0 9.0 0.00 0.00 0.00 79 1006.3
20260507113859 48 337 6.0 6.0 0.00 0.00 0.00 79 1006.2
20260507112359 48 337 2.0 6.0 0.00 0.00 0.00 80 1006.1
20260507110859 48 337 7.0 7.0 0.00 0.00 0.00 80 1005.9
20260507105359 48 337 6.0 7.0 0.00 0.00 0.00 80 1005.7
20260507103859 48 337 7.0 8.0 0.00 0.00 0.00 79 1005.6
20260507102359 49 337 7.0 7.0 0.00 0.00 0.00 80 1005.4
20260507100859 48 22 6.0 6.0 0.00 0.00 0.00 82 1005.2
20260507095359 47 315 6.0 12.0 0.00 0.00 0.00 83 1005.2
20260507093859 46 0 4.0 6.0 0.00 0.00 0.00 83 1005.1
20260507092359 47 337 8.0 8.0 0.00 0.00 0.00 83 1005.1
20260507090859 46 337 7.0 7.0 0.00 0.00 0.00 84 1004.8
20260507085400 46 337 5.0 7.0 0.00 0.00 0.00 83 1004.5
20260507083859 47 337 7.0 7.0 0.00 0.00 0.00 83 1004.2
20260507082359 47 337 6.0 8.0 0.00 0.00 0.00 83 1004.0
20260507080859 46 337 5.0 8.0 0.00 0.00 0.00 84 1003.9
20260507075359 46 337 7.0 7.0 0.00 0.00 0.00 84 1003.9
20260507073859 46 22 3.0 3.0 0.00 0.00 0.00 85 1003.7
20260507072359 46 315 5.0 8.0 0.00 0.00 0.00 85 1003.6
20260507070859 46 337 8.0 8.0 0.00 0.00 0.00 85 1003.5
20260507065359 46 337 6.0 6.0 0.00 0.00 0.00 86 1003.3
20260507063859 46 0 2.0 6.0 0.00 0.00 0.00 85 1003.1
20260507062359 46 337 4.0 6.0 0.00 0.00 0.00 86 1002.8
20260507060859 46 337 6.0 7.0 0.00 0.00 0.00 86 1002.7
20260507055359 46 315 4.0 6.0 0.00 0.00 0.00 86 1002.6
20260507053900 45 315 5.0 5.0 0.00 0.00 0.00 87 1002.6
20260507052359 45 0 6.0 6.0 0.00 0.00 0.00 87 1002.3
20260507050900 45 0 3.0 6.0 0.00 0.00 0.00 88 1002.3
20260507045400 45 337 6.0 7.0 0.00 0.00 0.00 89 1002.2
20260507043900 44 337 2.0 3.0 0.00 0.00 0.00 89 1002.2
20260507042400 44 337 3.0 5.0 0.00 0.00 0.00 89 1001.9
20260507040900 44 337 2.0 6.0 0.00 0.00 0.00 89 1001.6
20260507035400 44 337 6.0 8.0 0.00 0.02 0.00 89 1001.4